Location: Boiro
(42.6475°N, 8.8834°W)
Time: 22:52:20
(UTC+01:00)

Altair - Pass Details

Date: 03 December 2021
Orbit: 1501 x 1683 km, 47.2° (Epoch: 18 January)

Event Time Altitude Azimuth Distance (km) Brightness Sun altitude
Rises 01:24:30 0° 291° (WNW) 4,639 - -69.5°
Reaches altitude 10° 01:28:22 10° 278° (W) 3,652 - -69.4°
Maximum altitude 01:34:48 22° 232° (SW) 2,836 - -69.4°
Drops below altitude 10° 01:41:19 10° 186° (S) 3,680 - -69.2°
Sets 01:45:17 0° 172° (S) 4,683 - -69.0°
